When you browse on this site, cookies collect data to enhance your experience and personalize the content and advertising you see.
Visit our Privacy Policy to learn more. By continuing to use the site, you agree to this use of cookies and data.
  • In France
  • List of Countries
  • For 7 days
  • Water Temperature
  • Satellite Maps
  • Weather Map
  • Weather Widgets
  • user-avatar
    Login

    Hourly Weather Balchik

    Today, 25 May, Saturday

    Time Temperature Precipitation Wind Pressure Humidity
    00:00 +13°C° 0.3 mm 4 mps 734 mmHg 93%
    01:00 +13°C° 0.3 mm 4 mps 734 mmHg 93%
    02:00 +13°C° 0.3 mm 5 mps 734 mmHg 93%
    03:00 +12°C° 0.1 mm 5 mps 734 mmHg 93%
    04:00 +12°C° 0.1 mm 5 mps 734 mmHg 92%
    05:00 +12°C° 0.1 mm 5 mps 734 mmHg 92%
    06:00 +13°C° 0.3 mm 5 mps 734 mmHg 90%
    07:00 +14°C° 0.3 mm 6 mps 735 mmHg 88%
    08:00 +15°C° 0.3 mm 6 mps 735 mmHg 85%
    09:00 +17°C° 0.3 mm 6 mps 735 mmHg 81%
    10:00 +19°C° 0.3 mm 5 mps 735 mmHg 76%
    11:00 +21°C° 0.3 mm 5 mps 735 mmHg 72%
    12:00 +21°C° 0.8 mm 5 mps 735 mmHg 71%
    13:00 +21°C° 0.8 mm 4 mps 735 mmHg 69%
    14:00 +22°C° 0.8 mm 4 mps 735 mmHg 68%
    15:00 +22°C° 0.6 mm 4 mps 735 mmHg 69%
    16:00 +22°C° 0.6 mm 4 mps 735 mmHg 70%
    17:00 +21°C° 0.6 mm 3 mps 735 mmHg 72%
    18:00 +20°C° 0.4 mm 3 mps 735 mmHg 76%
    19:00 +19°C° 0.4 mm 3 mps 735 mmHg 81%
    20:00 +17°C° 0.4 mm 3 mps 736 mmHg 86%
    21:00 +17°C° 0.3 mm 3 mps 736 mmHg 87%
    22:00 +16°C° 0.3 mm 3 mps 736 mmHg 88%
    23:00 +15°C° 0.3 mm 4 mps 737 mmHg 89%

    Tomorrow, 26 May, Sunday

    Time Temperature Precipitation Wind Pressure Humidity
    00:00 +15°C° 0 mm 4 mps 737 mmHg 89%
    01:00 +14°C° 0 mm 4 mps 737 mmHg 90%
    02:00 +14°C° 0 mm 4 mps 737 mmHg 90%
    03:00 +14°C° 0 mm 4 mps 737 mmHg 91%
    04:00 +13°C° 0 mm 3 mps 737 mmHg 92%
    05:00 +13°C° 0 mm 3 mps 737 mmHg 93%
    06:00 +16°C° 0 mm 3 mps 738 mmHg 88%
    07:00 +17°C° 0 mm 3 mps 738 mmHg 84%
    08:00 +19°C° 0 mm 3 mps 739 mmHg 79%
    09:00 +21°C° 0 mm 2 mps 739 mmHg 73%
    10:00 +23°C° 0 mm 2 mps 739 mmHg 67%
    11:00 +25°C° 0 mm 1 mps 740 mmHg 60%
    12:00 +25°C° 0.1 mm 1 mps 739 mmHg 59%
    13:00 +26°C° 0.1 mm 2 mps 739 mmHg 57%
    14:00 +26°C° 0.1 mm 2 mps 739 mmHg 56%
    15:00 +26°C° 0.6 mm 2 mps 739 mmHg 60%
    16:00 +25°C° 0.6 mm 2 mps 739 mmHg 64%
    17:00 +24°C° 0.6 mm 3 mps 739 mmHg 68%
    18:00 +22°C° 0 mm 3 mps 739 mmHg 75%
    19:00 +20°C° 0 mm 3 mps 739 mmHg 82%
    20:00 +18°C° 0 mm 3 mps 739 mmHg 89%
    21:00 +17°C° 0 mm 3 mps 739 mmHg 86%
    22:00 +17°C° 0 mm 2 mps 739 mmHg 84%
    23:00 +16°C° 0 mm 2 mps 740 mmHg 81%

    Day after tomorrow, 27 May, Monday

    Time Temperature Precipitation Wind Pressure Humidity
    00:00 +16°C° 0 mm 2 mps 740 mmHg 81%
    01:00 +16°C° 0 mm 2 mps 739 mmHg 80%
    02:00 +16°C° 0 mm 2 mps 739 mmHg 80%
    03:00 +16°C° 0 mm 2 mps 739 mmHg 81%
    04:00 +16°C° 0 mm 2 mps 739 mmHg 82%
    05:00 +16°C° 0 mm 2 mps 739 mmHg 83%
    06:00 +17°C° 0 mm 2 mps 740 mmHg 79%
    07:00 +19°C° 0 mm 2 mps 740 mmHg 74%
    08:00 +21°C° 0 mm 3 mps 740 mmHg 70%
    09:00 +22°C° 0 mm 3 mps 740 mmHg 66%
    10:00 +23°C° 0 mm 4 mps 741 mmHg 61%
    11:00 +25°C° 0 mm 4 mps 741 mmHg 56%
    12:00 +25°C° 0 mm 5 mps 740 mmHg 56%
    13:00 +25°C° 0 mm 5 mps 740 mmHg 56%
    14:00 +25°C° 0 mm 5 mps 740 mmHg 56%
    15:00 +23°C° 0 mm 5 mps 740 mmHg 60%
    16:00 +22°C° 0 mm 5 mps 739 mmHg 63%
    17:00 +22°C° 0 mm 5 mps 739 mmHg 66%
    18:00 +20°C° 0 mm 4 mps 739 mmHg 74%
    19:00 +18°C° 0 mm 3 mps 739 mmHg 82%
    20:00 +16°C° 0 mm 3 mps 739 mmHg 89%
    21:00 +14°C° 0 mm 3 mps 739 mmHg 90%
    22:00 +14°C° 0 mm 3 mps 739 mmHg 90%
    23:00 +14°C° 0 mm 3 mps 739 mmHg 90%

    28 May, Tuesday

    Time Temperature Precipitation Wind Pressure Humidity
    00:00 +14°C° 0 mm 3 mps 739 mmHg 91%
    01:00 +13°C° 0 mm 3 mps 738 mmHg 91%
    02:00 +13°C° 0 mm 3 mps 738 mmHg 91%
    03:00 +13°C° 0 mm 3 mps 738 mmHg 91%
    04:00 +13°C° 0 mm 3 mps 738 mmHg 90%
    05:00 +13°C° 0 mm 3 mps 737 mmHg 90%
    06:00 +16°C° 0 mm 3 mps 737 mmHg 84%
    07:00 +18°C° 0 mm 3 mps 738 mmHg 77%
    08:00 +20°C° 0 mm 4 mps 738 mmHg 71%
    09:00 +22°C° 0.1 mm 4 mps 738 mmHg 67%
    10:00 +23°C° 0.1 mm 4 mps 738 mmHg 63%
    11:00 +26°C° 0.1 mm 5 mps 738 mmHg 59%
    12:00 +26°C° 0 mm 5 mps 737 mmHg 58%
    13:00 +27°C° 0 mm 5 mps 737 mmHg 57%
    14:00 +27°C° 0 mm 5 mps 736 mmHg 56%
    15:00 +26°C° 0 mm 5 mps 736 mmHg 59%
    16:00 +26°C° 0 mm 5 mps 736 mmHg 62%
    17:00 +25°C° 0 mm 5 mps 735 mmHg 65%
    18:00 +22°C° 0 mm 4 mps 735 mmHg 70%
    19:00 +20°C° 0 mm 4 mps 735 mmHg 74%
    20:00 +18°C° 0 mm 3 mps 735 mmHg 79%
    21:00 +18°C° 0 mm 4 mps 735 mmHg 80%
    22:00 +18°C° 0 mm 4 mps 735 mmHg 81%
    23:00 +18°C° 0 mm 4 mps 735 mmHg 83%

    29 May, Wednesday

    Time Temperature Precipitation Wind Pressure Humidity
    00:00 +18°C° 0 mm 4 mps 735 mmHg 82%
    01:00 +17°C° 0 mm 4 mps 735 mmHg 82%
    02:00 +17°C° 0 mm 4 mps 734 mmHg 82%
    03:00 +15°C° 0 mm 4 mps 734 mmHg 78%
    04:00 +16°C° 0 mm 3 mps 734 mmHg 74%
    05:00 +14°C° 0 mm 3 mps 734 mmHg 70%
    06:00 +18°C° 0 mm 3 mps 735 mmHg 67%
    07:00 +20°C° 0 mm 4 mps 735 mmHg 64%
    08:00 +22°C° 0 mm 4 mps 736 mmHg 61%
    09:00 +25°C° 0 mm 4 mps 736 mmHg 59%
    10:00 +26°C° 0 mm 4 mps 736 mmHg 56%
    11:00 +28°C° 0 mm 4 mps 736 mmHg 54%
    12:00 +28°C° 0 mm 3 mps 736 mmHg 51%
    13:00 +29°C° 0 mm 3 mps 736 mmHg 49%
    14:00 +29°C° 0 mm 3 mps 736 mmHg 47%
    15:00 +29°C° 0 mm 3 mps 736 mmHg 50%
    16:00 +29°C° 0 mm 2 mps 736 mmHg 54%
    17:00 +28°C° 0 mm 2 mps 736 mmHg 57%
    18:00 +26°C° 0 mm 2 mps 736 mmHg 62%
    19:00 +24°C° 0 mm 1 mps 736 mmHg 66%
    20:00 +22°C° 0 mm 1 mps 736 mmHg 71%
    21:00 +22°C° 0 mm 1 mps 737 mmHg 72%
    22:00 +21°C° 0 mm 1 mps 737 mmHg 73%
    23:00 +21°C° 0 mm 1 mps 737 mmHg 75%

    30 May, Thursday

    Time Temperature Precipitation Wind Pressure Humidity
    00:00 +21°C° 0 mm 1 mps 737 mmHg 74%
    01:00 +20°C° 0 mm 1 mps 737 mmHg 74%
    02:00 +19°C° 0 mm 2 mps 737 mmHg 73%
    03:00 +19°C° 0 mm 2 mps 737 mmHg 73%
    04:00 +19°C° 0 mm 2 mps 738 mmHg 72%
    05:00 +19°C° 0 mm 2 mps 738 mmHg 72%
    06:00 +21°C° 0 mm 2 mps 738 mmHg 68%
    07:00 +24°C° 0 mm 2 mps 738 mmHg 65%
    08:00 +26°C° 0 mm 2 mps 739 mmHg 61%
    09:00 +26°C° 0 mm 3 mps 739 mmHg 59%
    10:00 +27°C° 0 mm 3 mps 739 mmHg 56%
    11:00 +28°C° 0 mm 4 mps 739 mmHg 54%
    12:00 +29°C° 0.1 mm 3 mps 739 mmHg 52%
    13:00 +29°C° 0.1 mm 3 mps 739 mmHg 50%
    14:00 +29°C° 0.1 mm 3 mps 739 mmHg 49%
    15:00 +29°C° 0 mm 2 mps 738 mmHg 51%
    16:00 +29°C° 0 mm 2 mps 738 mmHg 54%
    17:00 +28°C° 0 mm 2 mps 738 mmHg 56%
    18:00 +26°C° 0 mm 2 mps 738 mmHg 62%
    19:00 +25°C° 0 mm 1 mps 738 mmHg 67%
    20:00 +23°C° 0 mm 1 mps 738 mmHg 73%
    21:00 +22°C° 0.1 mm 1 mps 738 mmHg 75%
    22:00 +21°C° 0.1 mm 1 mps 738 mmHg 77%
    23:00 +20°C° 0.1 mm 2 mps 738 mmHg 80%
    Show more